| time (UTC) | temp F | wind direction | speed knots | gust knots | rain 1hr in | rain 24hr in | rain mn in | humidity % | barometer mb |
| 20260507102148 | 67 | 60 | 1.7 | 6.1 | 0.00 | 0.00 | 0.00 | 68 | 1015.0 |
| 20260507101148 | 66 | 37 | 2.6 | 7.0 | 0.00 | 0.00 | 0.00 | 68 | 1014.8 |
| 20260507100147 | 65 | 45 | 2.6 | 6.1 | 0.00 | 0.00 | 0.00 | 69 | 1015.1 |
| 20260507095149 | 66 | 35 | 2.6 | 7.0 | 0.00 | 0.00 | 0.00 | 68 | 1015.2 |
| 20260507094148 | 66 | 44 | 1.7 | 6.1 | 0.00 | 0.00 | 0.00 | 67 | 1015.4 |
| 20260507093148 | 66 | 63 | 2.6 | 6.1 | 0.00 | 0.00 | 0.00 | 66 | 1015.1 |
| 20260507092148 | 65 | 39 | 1.7 | 6.1 | 0.00 | 0.00 | 0.00 | 67 | 1015.2 |
| 20260507091148 | 65 | 37 | 2.6 | 7.8 | 0.00 | 0.00 | 0.00 | 68 | 1015.3 |
| 20260507090148 | 65 | 34 | 1.7 | 7.0 | 0.00 | 0.00 | 0.00 | 68 | 1015.5 |
| 20260507085148 | 65 | 45 | 1.7 | 7.0 | 0.00 | 0.00 | 0.00 | 69 | 1015.2 |
| 20260507084148 | 65 | 48 | 1.7 | 6.1 | 0.00 | 0.00 | 0.00 | 72 | 1015.0 |
| 20260507083148 | 64 | 42 | 2.6 | 6.1 | 0.00 | 0.00 | 0.00 | 75 | 1015.2 |
| 20260507082148 | 63 | 37 | 1.7 | 6.1 | 0.00 | 0.00 | 0.00 | 75 | 1014.9 |
| 20260507081147 | 64 | 52 | 0.9 | 4.3 | 0.00 | 0.00 | 0.00 | 74 | 1014.8 |
| 20260507080148 | 63 | 33 | 0.9 | 6.1 | 0.00 | 0.00 | 0.00 | 75 | 1014.9 |
| 20260507075148 | 63 | 32 | 1.7 | 5.2 | 0.00 | 0.00 | 0.00 | 76 | 1015.0 |
| 20260507073148 | 63 | 38 | 1.7 | 7.0 | 0.00 | 0.00 | 0.00 | 79 | 1015.2 |
| 20260507072148 | 63 | 57 | 0.9 | 4.3 | 0.00 | 0.00 | 0.00 | 78 | 1015.2 |
| 20260507071149 | 63 | 48 | 1.7 | 5.2 | 0.00 | 0.00 | 0.00 | 81 | 1015.3 |
| 20260507070147 | 62 | 19 | 1.7 | 4.3 | 0.00 | 0.00 | 0.00 | 84 | 1015.4 |
| 20260507065148 | 62 | 33 | 1.7 | 4.3 | 0.00 | 0.00 | 0.00 | 87 | 1015.5 |
| 20260507064148 | 61 | 5 | 1.7 | 4.3 | 0.00 | 0.00 | 0.00 | 90 | 1015.2 |
| 20260507063147 | 61 | 9 | 1.7 | 2.6 | 0.00 | 0.00 | 0.00 | 92 | 1015.1 |
| 20260507062148 | 60 | 8 | 1.7 | 4.3 | 0.00 | 0.00 | 0.00 | 93 | 1015.0 |
| 20260507060148 | 60 | 348 | 0.9 | 2.6 | 0.00 | 0.00 | 0.00 | 94 | 1015.1 |
| 20260507054148 | 59 | 0 | 1.7 | 2.6 | 0.00 | 0.00 | 0.00 | 96 | 1015.2 |
| 20260507053148 | 59 | 356 | 0.9 | 5.2 | 0.00 | 0.00 | 0.00 | 97 | 1015.3 |
| 20260507052148 | 59 | 4 | 1.7 | 2.6 | 0.00 | 0.00 | 0.00 | 97 | 1015.2 |
| 20260507051148 | 59 | 347 | 0.9 | 2.6 | 0.00 | 0.00 | 0.00 | 97 | 1015.0 |
| 20260507050148 | 59 | 343 | 2.6 | 7.0 | 0.00 | 0.00 | 0.00 | 97 | 1014.8 |
| 20260507045147 | 59 | 58 | 1.7 | 4.3 | 0.00 | 0.00 | 0.00 | 98 | 1015.0 |
| 20260507044148 | 58 | 12 | 2.6 | 4.3 | 0.00 | 0.00 | 0.00 | 97 | 1014.8 |
| 20260507043148 | 58 | 75 | 1.7 | 4.3 | 0.00 | 0.00 | 0.00 | 97 | 1014.7 |
| 20260507042148 | 58 | 86 | 1.7 | 4.3 | 0.00 | 0.00 | 0.00 | 97 | 1014.7 |
| 20260507040147 | 58 | 21 | 0.9 | 2.6 | 0.00 | 0.00 | 0.00 | 97 | 1014.8 |
| 20260507035149 | 58 | 312 | 1.7 | 6.1 | 0.00 | 0.00 | 0.00 | 96 | 1014.8 |
| 20260507034148 | 58 | 342 | 1.7 | 4.3 | 0.00 | 0.00 | 0.00 | 96 | 1015.0 |
| 20260507032147 | 58 | 329 | 0.9 | 1.7 | 0.00 | 0.00 | 0.00 | 96 | 1014.9 |
| 20260507031148 | 58 | 342 | 1.7 | 2.6 | 0.00 | 0.00 | 0.00 | 95 | 1015.3 |
| 20260507025148 | 58 | 340 | 1.7 | 2.6 | 0.00 | 0.00 | 0.00 | 95 | 1014.7 |
| 20260507024148 | 59 | 348 | 1.7 | 2.6 | 0.00 | 0.00 | 0.00 | 94 | 1014.6 |
| 20260507023148 | 59 | 345 | 1.7 | 2.6 | 0.00 | 0.00 | 0.00 | 93 | 1015.0 |
| 20260507022148 | 59 | 330 | 0.9 | 2.6 | 0.00 | 0.00 | 0.00 | 92 | 1014.5 |
| 20260507021148 | 59 | 346 | 1.7 | 1.7 | 0.00 | 0.00 | 0.00 | 89 | 1014.6 |
| 20260507020148 | 59 | 7 | 1.7 | 2.6 | 0.00 | 0.00 | 0.00 | 86 | 1014.3 |
| 20260507014148 | 59 | 351 | 1.7 | 2.6 | 0.00 | 0.00 | 0.00 | 83 | 1014.3 |
| 20260507013148 | 58 | 340 | 1.7 | 2.6 | 0.00 | 0.00 | 0.00 | 85 | 1014.6 |
| 20260507012148 | 59 | 336 | 1.7 | 2.6 | 0.00 | 0.00 | 0.00 | 87 | 1014.8 |
| 20260507011148 | 59 | 348 | 0.9 | 2.6 | 0.00 | 0.00 | 0.00 | 86 | 1014.7 |
| 20260507010148 | 59 | 346 | 1.7 | 2.6 | 0.00 | 0.00 | 0.00 | 84 | 1014.8 |
| 20260507005147 | 59 | 356 | 1.7 | 2.6 | 0.00 | 0.00 | 0.00 | 80 | 1014.8 |
| 20260507004147 | 59 | 355 | 1.7 | 2.6 | 0.00 | 0.00 | 0.00 | 77 | 1014.8 |
| 20260507003147 | 59 | 354 | 1.7 | 2.6 | 0.00 | 0.00 | 0.00 | 78 | 1015.1 |
| 20260507002148 | 59 | 347 | 1.7 | 2.6 | 0.00 | 0.00 | 0.00 | 79 | 1015.1 |
| 20260507001147 | 59 | 354 | 1.7 | 2.6 | 0.00 | 0.00 | 0.00 | 81 | 1015.1 |
| 20260507000148 | 58 | 355 | 0.9 | 2.6 | 0.00 | 0.00 | 0.00 | 83 | 1015.4 |
| 20260506235147 | 58 | 347 | 0.9 | 2.6 | 0.00 | 0.00 | 0.00 | 87 | 1015.2 |
| 20260506234148 | 58 | 355 | 1.7 | 2.6 | 0.00 | 0.00 | 0.00 | 91 | 1015.4 |
| 20260506233147 | 58 | 346 | 1.7 | 2.6 | 0.00 | 0.00 | 0.00 | 92 | 1015.2 |
| 20260506232147 | 58 | 349 | 1.7 | 2.6 | 0.00 | 0.00 | 0.00 | 93 | 1015.4 |
| 20260506231148 | 58 | 349 | 0.9 | 2.6 | 0.00 | 0.00 | 0.00 | 93 | 1015.5 |
| 20260506225148 | 58 | 341 | 1.7 | 2.6 | 0.00 | 0.00 | 0.00 | 94 | 1015.4 |
| 20260506224148 | 58 | 348 | 1.7 | 2.6 | 0.00 | 0.00 | 0.00 | 95 | 1015.8 |
| 20260506223148 | 58 | 347 | 1.7 | 2.6 | 0.00 | 0.00 | 0.00 | 95 | 1015.8 |
| 20260506222148 | 58 | 336 | 1.7 | 2.6 | 0.00 | 0.00 | 0.00 | 95 | 1015.6 |
| 20260506221148 | 58 | 355 | 1.7 | 2.6 | 0.00 | 0.00 | 0.00 | 95 | 1015.8 |
| 20260506215148 | 59 | 338 | 0.9 | 2.6 | 0.00 | 0.00 | 0.00 | 95 | 1015.8 |
| 20260506214147 | 59 | 351 | 1.7 | 2.6 | 0.00 | 0.00 | 0.00 | 95 | 1015.9 |
| 20260506213147 | 59 | 349 | 0.9 | 2.6 | 0.00 | 0.00 | 0.00 | 96 | 1015.9 |
| 20260506212148 | 59 | 336 | 1.7 | 1.7 | 0.00 | 0.00 | 0.00 | 96 | 1016.0 |
| 20260506210147 | 59 | 341 | 1.7 | 2.6 | 0.00 | 0.00 | 0.00 | 96 | 1015.6 |
| 20260506204148 | 59 | 328 | 1.7 | 2.6 | 0.00 | 0.00 | 0.00 | 95 | 1015.2 |
| 20260506203148 | 59 | 346 | 1.7 | 2.6 | 0.00 | 0.00 | 0.00 | 95 | 1015.3 |
| 20260506202148 | 59 | 356 | 0.9 | 2.6 | 0.00 | 0.00 | 0.00 | 95 | 1014.9 |
| 20260506201148 | 59 | 345 | 0.9 | 1.7 | 0.00 | 0.00 | 0.00 | 94 | 1015.0 |
| 20260506200147 | 60 | 341 | 0.9 | 1.7 | 0.00 | 0.00 | 0.00 | 94 | 1015.2 |
| 20260506195147 | 60 | 340 | 0.9 | 2.6 | 0.00 | 0.00 | 0.00 | 94 | 1015.1 |
| 20260506194148 | 60 | 334 | 1.7 | 2.6 | 0.00 | 0.00 | 0.00 | 93 | 1015.7 |
| 20260506193148 | 60 | 0 | 0.9 | 1.7 | 0.00 | 0.00 | 0.00 | 93 | 1015.8 |
| 20260506192148 | 60 | 354 | 1.7 | 2.6 | 0.00 | 0.00 | 0.00 | 93 | 1015.9 |
| 20260506191148 | 60 | 346 | 1.7 | 1.7 | 0.00 | 0.00 | 0.00 | 93 | 1016.0 |
| 20260506185147 | 60 | 336 | 0.9 | 2.6 | 0.00 | 0.00 | 0.00 | 92 | 1015.8 |
| 20260506184147 | 60 | 323 | 1.7 | 1.7 | 0.00 | 0.00 | 0.00 | 92 | 1015.9 |
| 20260506183148 | 61 | 342 | 0.9 | 1.7 | 0.00 | 0.00 | 0.00 | 92 | 1015.9 |
| 20260506182148 | 61 | 336 | 0.9 | 2.6 | 0.00 | 0.00 | 0.00 | 92 | 1015.9 |
| 20260506181147 | 61 | 337 | 1.7 | 2.6 | 0.00 | 0.00 | 0.00 | 92 | 1015.8 |
| 20260506180148 | 61 | 341 | 0.9 | 1.7 | 0.00 | 0.00 | 0.00 | 93 | 1016.0 |
| 20260506175147 | 61 | 17 | 0.9 | 1.7 | 0.00 | 0.00 | 0.00 | 93 | 1015.8 |
| 20260506174147 | 61 | 42 | 0.9 | 1.7 | 0.00 | 0.00 | 0.00 | 93 | 1015.8 |
| 20260506173147 | 61 | 329 | 0.9 | 1.7 | 0.00 | 0.00 | 0.00 | 92 | 1015.6 |
| 20260506172147 | 61 | 72 | 0.9 | 1.7 | 0.00 | 0.00 | 0.00 | 91 | 1015.6 |
| 20260506171148 | 62 | 8 | 0.9 | 1.7 | 0.00 | 0.00 | 0.00 | 90 | 1015.6 |
| 20260506170148 | 62 | 349 | 0.9 | 1.7 | 0.00 | 0.00 | 0.00 | 89 | 1015.4 |
| 20260506165147 | 62 | 56 | 0.9 | 1.7 | 0.00 | 0.00 | 0.00 | 89 | 1015.6 |
| 20260506164148 | 62 | 39 | 0.9 | 1.7 | 0.00 | 0.00 | 0.00 | 89 | 1015.8 |
| 20260506163147 | 62 | 97 | 0.9 | 1.7 | 0.00 | 0.00 | 0.00 | 87 | 1015.6 |
| 20260506162148 | 62 | 65 | 0.9 | 1.7 | 0.00 | 0.00 | 0.00 | 86 | 1015.8 |
| 20260506161148 | 62 | 35 | 0.9 | 2.6 | 0.00 | 0.00 | 0.00 | 86 | 1015.9 |
| 20260506160148 | 63 | 104 | 1.7 | 1.7 | 0.00 | 0.00 | 0.00 | 83 | 1015.9 |
| 20260506155147 | 64 | 73 | 0.9 | 2.6 | 0.00 | 0.00 | 0.00 | 81 | 1015.9 |
| 20260506153147 | 63 | 57 | 0.9 | 1.7 | 0.00 | 0.00 | 0.00 | 84 | 1015.8 |
| 20260506151147 | 63 | 88 | 0.9 | 1.7 | 0.00 | 0.00 | 0.00 | 83 | 1016.1 |
| 20260506150148 | 63 | 74 | 0.9 | 2.6 | 0.00 | 0.00 | 0.00 | 85 | 1016.3 |
| 20260506143149 | 63 | 93 | 1.7 | 4.3 | 0.00 | 0.00 | 0.00 | 81 | 1016.1 |
| 20260506142147 | 63 | 131 | 1.7 | 2.6 | 0.00 | 0.00 | 0.00 | 78 | 1016.2 |
| 20260506141147 | 63 | 135 | 2.6 | 4.3 | 0.00 | 0.00 | 0.00 | 81 | 1016.6 |
| 20260506140147 | 62 | 134 | 1.7 | 2.6 | 0.00 | 0.00 | 0.00 | 83 | 1016.3 |
| 20260506133148 | 62 | 81 | 1.7 | 5.2 | 0.00 | 0.00 | 0.00 | 83 | 1016.3 |
| 20260506132147 | 62 | 149 | 1.7 | 2.6 | 0.00 | 0.00 | 0.00 | 82 | 1016.2 |
| 20260506131147 | 64 | 104 | 2.6 | 4.3 | 0.00 | 0.00 | 0.00 | 81 | 1016.4 |
| 20260506130147 | 63 | 95 | 1.7 | 4.3 | 0.00 | 0.00 | 0.00 | 83 | 1016.6 |
| 20260506125147 | 65 | 118 | 1.7 | 4.3 | 0.00 | 0.00 | 0.00 | 79 | 1016.3 |
| 20260506124149 | 63 | 34 | 1.7 | 5.2 | 0.00 | 0.00 | 0.00 | 79 | 1016.3 |
| 20260506123147 | 64 | 81 | 2.6 | 4.3 | 0.00 | 0.00 | 0.00 | 79 | 1016.7 |
| 20260506122147 | 63 | 93 | 1.7 | 4.3 | 0.00 | 0.00 | 0.00 | 80 | 1016.9 |
| 20260506121147 | 63 | 149 | 0.9 | 4.3 | 0.00 | 0.00 | 0.00 | 80 | 1016.9 |
| 20260506120147 | 63 | 84 | 2.6 | 4.3 | 0.00 | 0.00 | 0.00 | 81 | 1017.1 |
| 20260506113147 | 64 | 122 | 2.6 | 4.3 | 0.00 | 0.00 | 0.00 | 80 | 1017.1 |
| 20260506112147 | 63 | 117 | 1.7 | 5.2 | 0.00 | 0.00 | 0.00 | 83 | 1016.9 |
| 20260506111147 | 63 | 90 | 1.7 | 4.3 | 0.00 | 0.00 | 0.00 | 81 | 1016.9 |
| 20260506110146 | 63 | 133 | 1.7 | 4.3 | 0.00 | 0.00 | 0.00 | 79 | 1017.1 |
| 20260506105147 | 63 | 114 | 1.7 | 4.3 | 0.00 | 0.00 | 0.00 | 77 | 1016.9 |
| 20260506104147 | 64 | 88 | 1.7 | 4.3 | 0.00 | 0.00 | 0.00 | 76 | 1017.0 |